Time,TemperatureF,DewpointF,PressureIn,WindDirection,WindDirectionDegrees,WindSpeedMPH,WindSpeedGustMPH,Humidity,HourlyPrecipIn,Conditions,Clouds,dailyrainin,SoftwareType,DateUTC
2013-05-06 00:01:00,45.9,44.4,30.31,East,94,1.0,6.0,95,0.00,,,0.00,meteohub,2013-05-06 04:01:00,
2013-05-06 00:02:00,45.9,44.4,30.31,East,94,2.0,6.0,95,0.00,,,0.00,meteohub,2013-05-06 04:02:00,
2013-05-06 00:07:00,46.0,44.6,30.31,ENE,75,0.0,6.0,95,0.00,,,0.00,meteohub,2013-05-06 04:07:00,
2013-05-06 00:12:00,46.2,44.8,30.30,East,96,3.0,6.0,95,0.00,,,0.00,meteohub,2013-05-06 04:12:00,
2013-05-06 00:17:00,46.4,44.8,30.30,ESE,105,2.0,6.0,94,0.00,,,0.00,meteohub,2013-05-06 04:17:00,
2013-05-06 00:22:00,46.6,45.0,30.30,ESE,110,1.0,6.0,94,0.00,,,0.00,meteohub,2013-05-06 04:22:00,
2013-05-06 00:27:00,46.8,45.1,30.30,ESE,108,0.0,6.0,94,0.00,,,0.00,meteohub,2013-05-06 04:27:00,
2013-05-06 00:32:00,46.8,44.8,30.30,East,92,1.0,6.0,93,0.00,,,0.00,meteohub,2013-05-06 04:32:00,
2013-05-06 00:37:00,46.8,44.8,30.30,ENE,60,2.0,5.0,93,0.00,,,0.00,meteohub,2013-05-06 04:37:00,
2013-05-06 00:42:00,46.8,44.8,30.30,ENE,69,1.0,4.0,93,0.00,,,0.00,meteohub,2013-05-06 04:42:00,
2013-05-06 00:47:00,46.8,44.8,30.30,ENE,75,1.0,7.0,93,0.00,,,0.00,meteohub,2013-05-06 04:47:00,
2013-05-06 00:52:00,46.8,44.8,30.29,ENE,74,2.0,7.0,93,0.00,,,0.00,meteohub,2013-05-06 04:52:00,
2013-05-06 00:57:00,46.6,44.6,30.29,NE,40,2.0,7.0,93,0.00,,,0.00,meteohub,2013-05-06 04:57:00,
2013-05-06 01:02:00,46.6,44.4,30.29,NE,55,7.0,7.0,92,0.00,,,0.00,meteohub,2013-05-06 05:02:00,
2013-05-06 01:07:00,46.6,44.4,30.29,NE,56,3.0,6.0,92,0.00,,,0.00,meteohub,2013-05-06 05:07:00,
2013-05-06 01:11:00,46.6,44.4,30.29,East,101,1.0,7.0,92,0.00,,,0.00,meteohub,2013-05-06 05:11:00,
2013-05-06 01:16:00,46.4,44.2,30.29,ESE,103,2.0,7.0,92,0.00,,,0.00,meteohub,2013-05-06 05:16:00,
2013-05-06 01:21:00,46.6,44.4,30.29,ENE,78,3.0,7.0,92,0.00,,,0.00,meteohub,2013-05-06 05:21:00,
2013-05-06 01:26:00,46.6,44.1,30.28,ESE,113,1.0,7.0,91,0.00,,,0.00,meteohub,2013-05-06 05:26:00,
2013-05-06 01:31:00,46.6,44.1,30.28,East,85,2.0,5.0,91,0.00,,,0.00,meteohub,2013-05-06 05:31:00,
2013-05-06 01:36:00,46.4,43.9,30.28,ENE,61,4.0,4.0,91,0.00,,,0.00,meteohub,2013-05-06 05:36:00,
2013-05-06 01:41:00,46.2,43.7,30.28,ENE,67,2.0,5.0,91,0.00,,,0.00,meteohub,2013-05-06 05:41:00,
2013-05-06 01:46:00,46.2,43.7,30.28,East,88,0.0,5.0,91,0.00,,,0.00,meteohub,2013-05-06 05:46:00,
2013-05-06 01:51:00,46.0,43.5,30.28,ENE,69,2.0,5.0,91,0.00,,,0.00,meteohub,2013-05-06 05:51:00,
2013-05-06 01:56:00,46.0,43.5,30.28,ENE,63,2.0,5.0,91,0.00,,,0.00,meteohub,2013-05-06 05:56:00,
2013-05-06 02:01:00,45.9,43.3,30.27,East,85,2.0,5.0,91,0.00,,,0.00,meteohub,2013-05-06 06:01:00,
2013-05-06 02:06:00,45.7,43.2,30.27,ENE,63,2.0,6.0,91,0.00,,,0.00,meteohub,2013-05-06 06:06:00,
2013-05-06 02:11:00,45.7,43.2,30.27,East,83,3.0,6.0,91,0.00,,,0.00,meteohub,2013-05-06 06:11:00,
2013-05-06 02:16:00,45.7,43.2,30.27,ENE,73,5.0,6.0,91,0.00,,,0.00,meteohub,2013-05-06 06:16:00,
2013-05-06 02:21:00,45.7,43.2,30.27,ESE,106,1.0,6.0,91,0.00,,,0.00,meteohub,2013-05-06 06:21:00,
2013-05-06 02:26:00,45.3,42.8,30.27,East,94,0.0,6.0,91,0.00,,,0.00,meteohub,2013-05-06 06:26:00,
2013-05-06 02:31:00,45.0,42.4,30.27,ESE,121,1.0,5.0,91,0.00,,,0.00,meteohub,2013-05-06 06:31:00,
2013-05-06 02:36:00,44.8,42.3,30.27,ESE,110,3.0,4.0,91,0.00,,,0.00,meteohub,2013-05-06 06:36:00,
2013-05-06 02:41:00,44.8,42.6,30.27,East,93,5.0,5.0,92,0.00,,,0.00,meteohub,2013-05-06 06:41:00,
2013-05-06 02:46:00,45.1,43.0,30.27,ENE,65,3.0,9.0,92,0.00,,,0.00,meteohub,2013-05-06 06:46:00,
2013-05-06 02:51:00,45.5,43.3,30.27,NE,53,4.0,9.0,92,0.00,,,0.00,meteohub,2013-05-06 06:51:00,
2013-05-06 02:56:00,45.5,43.3,30.26,East,93,4.0,10.0,92,0.00,,,0.00,meteohub,2013-05-06 06:56:00,
2013-05-06 03:01:00,45.1,42.6,30.26,NE,35,8.0,10.0,91,0.00,,,0.00,meteohub,2013-05-06 07:01:00,
2013-05-06 03:06:00,45.1,42.6,30.26,NNW,340,3.0,10.0,91,0.00,,,0.00,meteohub,2013-05-06 07:06:00,
2013-05-06 03:11:00,45.1,42.6,30.26,NE,54,4.0,12.0,91,0.00,,,0.00,meteohub,2013-05-06 07:11:00,
2013-05-06 03:16:00,45.1,42.6,30.26,NE,52,4.0,12.0,91,0.00,,,0.00,meteohub,2013-05-06 07:16:00,
2013-05-06 03:21:00,45.0,42.4,30.26,ENE,76,3.0,11.0,91,0.00,,,0.00,meteohub,2013-05-06 07:21:00,
2013-05-06 03:26:00,44.4,41.9,30.26,ENE,67,0.0,10.0,91,0.00,,,0.00,meteohub,2013-05-06 07:26:00,
2013-05-06 03:31:00,44.2,41.7,30.26,NNE,32,6.0,8.0,91,0.00,,,0.00,meteohub,2013-05-06 07:31:00,
2013-05-06 03:36:00,44.1,41.9,30.26,East,101,2.0,6.0,92,0.00,,,0.00,meteohub,2013-05-06 07:36:00,
2013-05-06 03:41:00,43.9,41.7,30.26,ESE,103,4.0,6.0,92,0.00,,,0.00,meteohub,2013-05-06 07:41:00,
2013-05-06 03:46:00,43.5,41.4,30.26,East,91,2.0,6.0,92,0.00,,,0.00,meteohub,2013-05-06 07:46:00,
2013-05-06 03:51:00,43.5,41.4,30.26,East,89,1.0,6.0,92,0.00,,,0.00,meteohub,2013-05-06 07:51:00,
2013-05-06 03:56:00,43.3,41.2,30.27,South,188,1.0,5.0,92,0.00,,,0.00,meteohub,2013-05-06 07:56:00,
2013-05-06 04:01:00,43.3,41.2,30.27,ESE,103,1.0,7.0,92,0.00,,,0.00,meteohub,2013-05-06 08:01:00,
2013-05-06 04:06:00,43.2,41.4,30.27,East,101,1.0,7.0,93,0.00,,,0.00,meteohub,2013-05-06 08:06:00,
2013-05-06 04:11:00,43.2,41.4,30.27,ESE,119,2.0,7.0,93,0.00,,,0.00,meteohub,2013-05-06 08:11:00,
2013-05-06 04:17:00,43.0,41.2,30.27,SE,142,1.0,4.0,93,0.00,,,0.00,meteohub,2013-05-06 08:17:00,
2013-05-06 04:21:00,43.0,41.2,30.27,ESE,113,0.0,4.0,93,0.00,,,0.00,meteohub,2013-05-06 08:21:00,
2013-05-06 04:27:00,42.8,41.0,30.27,SE,138,0.0,4.0,93,0.00,,,0.00,meteohub,2013-05-06 08:27:00,
2013-05-06 04:32:00,42.8,41.2,30.27,SE,130,0.0,2.0,94,0.00,,,0.00,meteohub,2013-05-06 08:32:00,
2013-05-06 04:37:00,42.6,41.0,30.27,SE,124,0.0,2.0,94,0.00,,,0.00,meteohub,2013-05-06 08:37:00,
2013-05-06 04:42:00,42.6,41.0,30.27,ESE,108,2.0,2.0,94,0.00,,,0.00,meteohub,2013-05-06 08:42:00,
2013-05-06 04:47:00,42.6,41.0,30.27,ESE,110,1.0,2.0,94,0.00,,,0.00,meteohub,2013-05-06 08:47:00,
2013-05-06 04:52:00,42.6,41.0,30.27,SE,133,0.0,3.0,94,0.00,,,0.00,meteohub,2013-05-06 08:52:00,
2013-05-06 04:57:00,42.6,41.4,30.28,ESE,117,1.0,3.0,95,0.00,,,0.00,meteohub,2013-05-06 08:57:00,
2013-05-06 05:02:00,42.6,41.4,30.27,ESE,104,0.0,3.0,95,0.00,,,0.00,meteohub,2013-05-06 09:02:00,
2013-05-06 05:07:00,42.8,41.5,30.27,East,86,1.0,3.0,95,0.00,,,0.00,meteohub,2013-05-06 09:07:00,
2013-05-06 05:12:00,43.2,41.9,30.27,ESE,113,3.0,3.0,95,0.00,,,0.00,meteohub,2013-05-06 09:12:00,
2013-05-06 05:17:00,43.3,42.1,30.28,ESE,122,1.0,5.0,95,0.00,,,0.00,meteohub,2013-05-06 09:17:00,
2013-05-06 05:22:00,43.2,41.5,30.28,ESE,121,0.0,5.0,94,0.00,,,0.00,meteohub,2013-05-06 09:22:00,
2013-05-06 05:27:00,43.0,41.4,30.28,ESE,113,1.0,5.0,94,0.00,,,0.00,meteohub,2013-05-06 09:27:00,
2013-05-06 05:32:00,42.8,41.2,30.28,ESE,115,1.0,3.0,94,0.00,,,0.00,meteohub,2013-05-06 09:32:00,
2013-05-06 05:37:00,42.8,41.5,30.28,East,91,1.0,3.0,95,0.00,,,0.00,meteohub,2013-05-06 09:37:00,
2013-05-06 05:42:00,43.0,41.7,30.28,East,88,2.0,3.0,95,0.00,,,0.00,meteohub,2013-05-06 09:42:00,
2013-05-06 05:47:00,43.0,41.7,30.29,SE,132,0.0,3.0,95,0.00,,,0.00,meteohub,2013-05-06 09:47:00,
2013-05-06 05:52:00,43.2,41.9,30.29,ENE,70,3.0,3.0,95,0.00,,,0.00,meteohub,2013-05-06 09:52:00,
2013-05-06 05:56:00,43.3,42.1,30.29,ENE,58,3.0,3.0,95,0.00,,,0.00,meteohub,2013-05-06 09:56:00,
2013-05-06 06:02:00,43.7,42.4,30.29,East,88,2.0,4.0,95,0.00,,,0.00,meteohub,2013-05-06 10:02:00,
2013-05-06 06:07:00,43.7,42.1,30.29,ESE,103,1.0,4.0,94,0.00,,,0.00,meteohub,2013-05-06 10:07:00,
2013-05-06 06:12:00,43.9,42.3,30.29,East,91,1.0,5.0,94,0.00,,,0.00,meteohub,2013-05-06 10:12:00,
2013-05-06 06:17:00,44.1,42.4,30.29,ENE,57,5.0,5.0,94,0.00,,,0.00,meteohub,2013-05-06 10:17:00,
2013-05-06 06:22:00,44.6,43.0,30.30,East,94,2.0,6.0,94,0.00,,,0.00,meteohub,2013-05-06 10:22:00,
2013-05-06 06:27:00,44.8,43.2,30.30,East,84,4.0,6.0,94,0.00,,,0.00,meteohub,2013-05-06 10:27:00,
2013-05-06 06:32:00,45.0,43.3,30.30,East,81,5.0,6.0,94,0.00,,,0.00,meteohub,2013-05-06 10:32:00,
2013-05-06 06:37:00,45.5,43.5,30.30,East,90,1.0,7.0,93,0.00,,,0.00,meteohub,2013-05-06 10:37:00,
2013-05-06 06:42:00,45.7,43.7,30.30,East,101,4.0,7.0,93,0.00,,,0.00,meteohub,2013-05-06 10:42:00,
2013-05-06 06:47:00,45.9,43.9,30.30,ENE,67,2.0,7.0,93,0.00,,,0.00,meteohub,2013-05-06 10:47:00,
2013-05-06 06:52:00,45.9,43.7,30.30,ENE,62,3.0,7.0,92,0.00,,,0.00,meteohub,2013-05-06 10:52:00,
2013-05-06 06:57:00,46.0,43.9,30.30,ESE,105,2.0,7.0,92,0.00,,,0.00,meteohub,2013-05-06 10:57:00,
2013-05-06 07:02:00,46.2,44.1,30.30,SSE,162,3.0,7.0,92,0.00,,,0.00,meteohub,2013-05-06 11:02:00,
2013-05-06 07:07:00,46.6,44.4,30.31,SSE,148,1.0,6.0,92,0.00,,,0.00,meteohub,2013-05-06 11:07:00,
2013-05-06 07:12:00,46.8,44.6,30.30,ENE,62,3.0,5.0,92,0.00,,,0.00,meteohub,2013-05-06 11:12:00,
2013-05-06 07:16:00,46.9,44.4,30.31,East,82,0.0,6.0,91,0.00,,,0.00,meteohub,2013-05-06 11:16:00,
2013-05-06 07:21:00,47.1,44.6,30.31,ENE,60,6.0,8.0,91,0.00,,,0.00,meteohub,2013-05-06 11:21:00,
2013-05-06 07:26:00,47.5,44.8,30.31,North,4,1.0,8.0,90,0.00,,,0.00,meteohub,2013-05-06 11:26:00,
2013-05-06 07:31:00,47.5,44.4,30.31,ENE,61,3.0,8.0,89,0.00,,,0.00,meteohub,2013-05-06 11:31:00,
2013-05-06 07:36:00,47.7,45.0,30.31,NNE,30,2.0,6.0,90,0.00,,,0.00,meteohub,2013-05-06 11:36:00,
2013-05-06 07:41:00,47.7,44.6,30.31,East,82,1.0,6.0,89,0.00,,,0.00,meteohub,2013-05-06 11:41:00,
2013-05-06 07:46:00,48.0,45.1,30.32,ENE,72,3.0,5.0,90,0.00,,,0.00,meteohub,2013-05-06 11:46:00,
2013-05-06 07:51:00,48.2,45.1,30.31,ESE,108,1.0,5.0,89,0.00,,,0.00,meteohub,2013-05-06 11:51:00,
2013-05-06 07:56:00,48.6,45.5,30.31,South,173,0.0,6.0,89,0.00,,,0.00,meteohub,2013-05-06 11:56:00,
2013-05-06 08:01:00,48.9,45.5,30.32,East,84,3.0,6.0,88,0.00,,,0.00,meteohub,2013-05-06 12:01:00,
2013-05-06 08:06:00,49.1,45.7,30.32,ENE,76,1.0,6.0,88,0.00,,,0.00,meteohub,2013-05-06 12:06:00,
2013-05-06 08:11:00,49.3,45.3,30.31,NE,53,4.0,6.0,86,0.00,,,0.00,meteohub,2013-05-06 12:11:00,
2013-05-06 08:16:00,49.3,45.3,30.32,NE,49,4.0,6.0,86,0.00,,,0.00,meteohub,2013-05-06 12:16:00,
2013-05-06 08:21:00,49.5,45.7,30.32,NE,53,4.0,7.0,87,0.00,,,0.00,meteohub,2013-05-06 12:21:00,
2013-05-06 08:26:00,49.1,45.1,30.32,NNE,32,2.0,8.0,86,0.00,,,0.00,meteohub,2013-05-06 12:26:00,
2013-05-06 08:31:00,48.9,45.1,30.32,ENE,58,2.0,8.0,87,0.00,,,0.00,meteohub,2013-05-06 12:31:00,
2013-05-06 08:36:00,48.9,45.1,30.32,NE,47,3.0,8.0,87,0.00,,,0.00,meteohub,2013-05-06 12:36:00,
2013-05-06 08:41:00,49.6,45.7,30.32,ENE,57,2.0,8.0,86,0.00,,,0.00,meteohub,2013-05-06 12:41:00,
2013-05-06 08:46:00,50.2,45.5,30.32,ESE,108,4.0,7.0,84,0.00,,,0.00,meteohub,2013-05-06 12:46:00,
2013-05-06 08:51:00,50.7,46.0,30.32,East,85,4.0,9.0,84,0.00,,,0.00,meteohub,2013-05-06 12:51:00,
2013-05-06 08:56:00,50.7,46.0,30.32,East,82,3.0,9.0,84,0.00,,,0.00,meteohub,2013-05-06 12:56:00,
2013-05-06 09:01:00,50.9,45.9,30.32,East,91,2.0,9.0,83,0.00,,,0.00,meteohub,2013-05-06 13:01:00,
2013-05-06 09:06:00,51.3,46.2,30.32,ENE,63,6.0,9.0,83,0.00,,,0.00,meteohub,2013-05-06 13:06:00,
2013-05-06 09:11:00,51.6,46.6,30.32,ENE,64,4.0,9.0,83,0.00,,,0.00,meteohub,2013-05-06 13:11:00,
2013-05-06 09:16:00,51.6,46.0,30.32,ENE,59,7.0,9.0,81,0.00,,,0.00,meteohub,2013-05-06 13:16:00,
2013-05-06 09:21:00,51.8,46.8,30.32,ENE,72,2.0,9.0,83,0.00,,,0.00,meteohub,2013-05-06 13:21:00,
2013-05-06 09:26:00,52.0,46.0,30.32,East,84,6.0,7.0,80,0.00,,,0.00,meteohub,2013-05-06 13:26:00,
2013-05-06 09:31:00,52.2,46.2,30.32,East,94,2.0,10.0,80,0.00,,,0.00,meteohub,2013-05-06 13:31:00,
2013-05-06 09:36:00,52.3,46.4,30.32,ESE,111,1.0,10.0,80,0.00,,,0.00,meteohub,2013-05-06 13:36:00,
2013-05-06 09:41:00,52.5,46.9,30.32,ESE,108,1.0,7.0,81,0.00,,,0.00,meteohub,2013-05-06 13:41:00,
2013-05-06 09:46:00,52.7,46.4,30.32,NNE,30,4.0,7.0,79,0.00,,,0.00,meteohub,2013-05-06 13:46:00,
2013-05-06 09:51:00,52.5,46.2,30.32,NE,50,5.0,7.0,79,0.00,,,0.00,meteohub,2013-05-06 13:51:00,
2013-05-06 09:56:00,52.5,46.6,30.32,North,358,4.0,7.0,80,0.00,,,0.00,meteohub,2013-05-06 13:56:00,
2013-05-06 10:01:00,52.3,46.8,30.32,ENE,58,6.0,8.0,81,0.00,,,0.00,meteohub,2013-05-06 14:01:00,
2013-05-06 10:06:00,52.0,46.4,30.31,North,6,3.0,10.0,81,0.00,,,0.00,meteohub,2013-05-06 14:06:00,
2013-05-06 10:11:00,52.0,46.9,30.31,NE,54,6.0,10.0,83,0.00,,,0.00,meteohub,2013-05-06 14:11:00,
2013-05-06 10:16:00,52.2,46.8,30.31,NNE,19,4.0,10.0,82,0.00,,,0.00,meteohub,2013-05-06 14:16:00,
2013-05-06 10:21:00,51.4,46.8,30.32,NNE,20,6.0,10.0,84,0.00,,,0.00,meteohub,2013-05-06 14:21:00,
2013-05-06 10:26:00,51.1,46.8,30.32,North,355,6.0,10.0,85,0.00,,,0.00,meteohub,2013-05-06 14:26:00,
2013-05-06 10:31:00,51.1,46.8,30.32,NNE,33,4.0,9.0,85,0.00,,,0.00,meteohub,2013-05-06 14:31:00,
2013-05-06 10:36:00,51.4,47.1,30.32,North,8,3.0,9.0,85,0.00,,,0.00,meteohub,2013-05-06 14:36:00,
2013-05-06 10:41:00,51.4,47.1,30.32,NNE,29,4.0,9.0,85,0.00,,,0.00,meteohub,2013-05-06 14:41:00,
2013-05-06 10:46:00,51.8,47.5,30.32,NE,34,5.0,9.0,85,0.00,,,0.00,meteohub,2013-05-06 14:46:00,
2013-05-06 10:52:00,52.0,47.7,30.31,NNE,15,3.0,7.0,85,0.00,,,0.00,meteohub,2013-05-06 14:52:00,
2013-05-06 10:57:00,52.2,47.1,30.31,NE,40,5.0,7.0,83,0.00,,,0.00,meteohub,2013-05-06 14:57:00,
2013-05-06 11:02:00,52.3,47.7,30.31,NNE,18,3.0,7.0,84,0.00,,,0.00,meteohub,2013-05-06 15:02:00,
2013-05-06 11:07:00,52.5,47.8,30.31,North,8,5.0,7.0,84,0.00,,,0.00,meteohub,2013-05-06 15:07:00,
2013-05-06 11:12:00,52.5,47.8,30.31,NE,56,4.0,7.0,84,0.00,,,0.00,meteohub,2013-05-06 15:12:00,
2013-05-06 11:17:00,52.5,47.8,30.31,North,5,7.0,8.0,84,0.00,,,0.00,meteohub,2013-05-06 15:17:00,
2013-05-06 11:21:00,52.5,47.8,30.31,NNE,29,5.0,8.0,84,0.00,,,0.00,meteohub,2013-05-06 15:21:00,
2013-05-06 11:26:00,52.9,48.2,30.30,NE,37,4.0,8.0,84,0.00,,,0.00,meteohub,2013-05-06 15:26:00,
2013-05-06 11:31:00,52.9,47.8,30.30,North,9,3.0,8.0,83,0.00,,,0.00,meteohub,2013-05-06 15:31:00,
2013-05-06 11:37:00,53.1,48.4,30.30,NNE,20,6.0,8.0,84,0.00,,,0.00,meteohub,2013-05-06 15:37:00,
2013-05-06 11:42:00,53.1,48.0,30.30,North,355,4.0,7.0,83,0.00,,,0.00,meteohub,2013-05-06 15:42:00,
2013-05-06 11:47:00,53.2,48.2,30.30,NNE,20,3.0,8.0,83,0.00,,,0.00,meteohub,2013-05-06 15:47:00,
2013-05-06 11:52:00,53.4,47.7,30.30,NNE,16,5.0,8.0,81,0.00,,,0.00,meteohub,2013-05-06 15:52:00,
2013-05-06 11:57:00,53.4,48.0,30.30,NNE,18,4.0,7.0,82,0.00,,,0.00,meteohub,2013-05-06 15:57:00,
2013-05-06 12:02:00,53.4,48.0,30.30,North,11,4.0,7.0,82,0.00,,,0.00,meteohub,2013-05-06 16:02:00,
2013-05-06 12:07:00,53.8,49.1,30.30,NNE,15,4.0,7.0,84,0.00,,,0.00,meteohub,2013-05-06 16:07:00,
2013-05-06 12:12:00,54.1,49.5,30.29,NNW,347,6.0,7.0,84,0.00,,,0.00,meteohub,2013-05-06 16:12:00,
2013-05-06 12:17:00,54.0,48.9,30.29,NNE,12,5.0,8.0,83,0.00,,,0.00,meteohub,2013-05-06 16:17:00,
2013-05-06 12:21:00,54.1,49.8,30.29,NNE,14,4.0,8.0,85,0.00,,,0.00,meteohub,2013-05-06 16:21:00,
2013-05-06 12:26:00,54.0,48.9,30.29,NNE,20,6.0,8.0,83,0.00,,,0.00,meteohub,2013-05-06 16:26:00,
2013-05-06 12:31:00,53.6,48.6,30.28,NNE,24,7.0,7.0,83,0.00,,,0.00,meteohub,2013-05-06 16:31:00,
2013-05-06 12:36:00,53.4,49.1,30.28,North,358,5.0,8.0,85,0.00,,,0.00,meteohub,2013-05-06 16:36:00,
2013-05-06 12:41:00,53.6,49.3,30.28,NNE,12,3.0,8.0,85,0.00,,,0.00,meteohub,2013-05-06 16:41:00,
2013-05-06 12:46:00,53.8,49.5,30.28,NNE,12,5.0,8.0,85,0.00,,,0.00,meteohub,2013-05-06 16:46:00,
2013-05-06 12:51:00,54.1,49.8,30.27,NNE,30,2.0,7.0,85,0.00,,,0.00,meteohub,2013-05-06 16:51:00,
2013-05-06 12:56:00,54.1,49.1,30.27,North,8,3.0,6.0,83,0.00,,,0.00,meteohub,2013-05-06 16:56:00,
2013-05-06 13:01:00,54.7,49.3,30.27,North,11,5.0,8.0,82,0.00,,,0.00,meteohub,2013-05-06 17:01:00,
2013-05-06 13:06:00,54.5,49.5,30.28,NNE,16,5.0,8.0,83,0.00,,,0.00,meteohub,2013-05-06 17:06:00,
2013-05-06 13:11:00,54.3,49.3,30.27,North,359,4.0,8.0,83,0.00,,,0.00,meteohub,2013-05-06 17:11:00,
2013-05-06 13:16:00,54.3,49.3,30.27,North,8,6.0,8.0,83,0.00,,,0.00,meteohub,2013-05-06 17:16:00,
2013-05-06 13:21:00,54.3,49.6,30.27,NE,43,3.0,7.0,84,0.00,,,0.00,meteohub,2013-05-06 17:21:00,
2013-05-06 13:26:00,54.3,49.6,30.27,North,9,3.0,7.0,84,0.00,,,0.00,meteohub,2013-05-06 17:26:00,
2013-05-06 13:31:00,54.5,49.8,30.27,NNE,26,5.0,7.0,84,0.00,,,0.00,meteohub,2013-05-06 17:31:00,
2013-05-06 13:36:00,54.9,50.2,30.27,NNE,29,7.0,7.0,84,0.00,,,0.00,meteohub,2013-05-06 17:36:00,
2013-05-06 13:41:00,55.6,50.9,30.27,NNE,30,4.0,7.0,84,0.00,,,0.00,meteohub,2013-05-06 17:41:00,
2013-05-06 13:46:00,55.9,50.2,30.26,NE,34,4.0,7.0,81,0.00,,,0.00,meteohub,2013-05-06 17:46:00,
2013-05-06 13:51:00,55.8,50.4,30.26,NNE,18,5.0,7.0,82,0.00,,,0.00,meteohub,2013-05-06 17:51:00,
2013-05-06 13:56:00,55.8,50.7,30.26,NNE,20,4.0,7.0,83,0.00,,,0.00,meteohub,2013-05-06 17:56:00,
2013-05-06 14:01:00,55.4,49.6,30.26,NE,42,7.0,7.0,81,0.00,,,0.00,meteohub,2013-05-06 18:01:00,
2013-05-06 14:06:00,55.0,50.0,30.26,NNE,22,5.0,9.0,83,0.00,,,0.00,meteohub,2013-05-06 18:06:00,
2013-05-06 14:11:00,55.0,50.0,30.26,NNE,32,3.0,9.0,83,0.00,,,0.00,meteohub,2013-05-06 18:11:00,
2013-05-06 14:16:00,55.8,51.1,30.26,NNE,14,3.0,9.0,84,0.00,,,0.00,meteohub,2013-05-06 18:16:00,
2013-05-06 14:21:00,55.9,50.5,30.26,North,8,4.0,7.0,82,0.00,,,0.00,meteohub,2013-05-06 18:21:00,
2013-05-06 14:26:00,55.9,50.5,30.26,NNE,13,4.0,7.0,82,0.00,,,0.00,meteohub,2013-05-06 18:26:00,
2013-05-06 14:31:00,55.9,50.9,30.26,North,6,4.0,6.0,83,0.00,,,0.00,meteohub,2013-05-06 18:31:00,
2013-05-06 14:37:00,55.9,50.5,30.25,NNE,25,3.0,6.0,82,0.00,,,0.00,meteohub,2013-05-06 18:37:00,
2013-05-06 14:41:00,55.9,50.5,30.25,NNW,347,3.0,6.0,82,0.00,,,0.00,meteohub,2013-05-06 18:41:00,
2013-05-06 14:46:00,55.8,50.7,30.25,NE,51,5.0,6.0,83,0.00,,,0.00,meteohub,2013-05-06 18:46:00,
2013-05-06 14:51:00,55.9,51.3,30.25,North,5,5.0,6.0,84,0.00,,,0.00,meteohub,2013-05-06 18:51:00,
2013-05-06 14:56:00,55.9,51.3,30.25,North,356,2.0,8.0,84,0.00,,,0.00,meteohub,2013-05-06 18:56:00,
2013-05-06 15:01:00,56.7,51.3,30.24,NNE,20,5.0,8.0,82,0.00,,,0.00,meteohub,2013-05-06 19:01:00,
2013-05-06 15:07:00,56.8,51.1,30.24,NNE,17,5.0,8.0,81,0.00,,,0.00,meteohub,2013-05-06 19:07:00,
2013-05-06 15:12:00,56.5,51.1,30.24,NNE,26,5.0,7.0,82,0.00,,,0.00,meteohub,2013-05-06 19:12:00,
2013-05-06 15:16:00,56.5,51.1,30.24,North,359,4.0,8.0,82,0.00,,,0.00,meteohub,2013-05-06 19:16:00,
2013-05-06 15:21:00,56.3,51.3,30.24,NNW,347,4.0,8.0,83,0.00,,,0.00,meteohub,2013-05-06 19:21:00,
2013-05-06 15:26:00,55.9,50.9,30.24,NNE,19,5.0,8.0,83,0.00,,,0.00,meteohub,2013-05-06 19:26:00,
2013-05-06 15:32:00,56.1,51.1,30.24,NNE,24,5.0,6.0,83,0.00,,,0.00,meteohub,2013-05-06 19:32:00,
2013-05-06 15:37:00,56.3,51.3,30.23,NNE,23,4.0,6.0,83,0.00,,,0.00,meteohub,2013-05-06 19:37:00,
2013-05-06 15:41:00,57.0,52.0,30.24,NE,53,2.0,7.0,83,0.00,,,0.00,meteohub,2013-05-06 19:41:00,
2013-05-06 15:46:00,57.4,51.6,30.23,NNW,345,3.0,7.0,81,0.00,,,0.00,meteohub,2013-05-06 19:46:00,
2013-05-06 15:51:00,57.0,51.3,30.23,NNE,14,1.0,7.0,81,0.00,,,0.00,meteohub,2013-05-06 19:51:00,
2013-05-06 15:56:00,57.0,51.6,30.23,NNE,12,4.0,7.0,82,0.00,,,0.00,meteohub,2013-05-06 19:56:00,
2013-05-06 16:01:00,57.0,52.0,30.23,North,6,1.0,7.0,83,0.00,,,0.00,meteohub,2013-05-06 20:01:00,
2013-05-06 16:06:00,57.4,52.0,30.23,ENE,70,2.0,5.0,82,0.00,,,0.00,meteohub,2013-05-06 20:06:00,
2013-05-06 16:11:00,58.5,52.3,30.22,NE,41,4.0,6.0,80,0.00,,,0.00,meteohub,2013-05-06 20:11:00,
2013-05-06 16:17:00,59.7,52.5,30.22,ENE,70,2.0,7.0,77,0.00,,,0.00,meteohub,2013-05-06 20:17:00,
2013-05-06 16:21:00,61.9,53.1,30.22,East,96,4.0,7.0,73,0.00,,,0.00,meteohub,2013-05-06 20:21:00,
2013-05-06 16:26:00,62.1,52.5,30.22,SSE,160,1.0,7.0,71,0.00,,,0.00,meteohub,2013-05-06 20:26:00,
2013-05-06 16:31:00,61.3,52.2,30.22,North,8,3.0,7.0,72,0.00,,,0.00,meteohub,2013-05-06 20:31:00,
2013-05-06 16:36:00,62.1,53.2,30.22,NE,53,1.0,7.0,73,0.00,,,0.00,meteohub,2013-05-06 20:36:00,
2013-05-06 16:41:00,61.7,52.9,30.22,WNW,290,1.0,5.0,73,0.00,,,0.00,meteohub,2013-05-06 20:41:00,
2013-05-06 16:46:00,62.8,53.2,30.22,NNE,30,3.0,5.0,71,0.00,,,0.00,meteohub,2013-05-06 20:46:00,
2013-05-06 16:51:00,62.2,53.1,30.22,NNE,24,4.0,8.0,72,0.00,,,0.00,meteohub,2013-05-06 20:51:00,
2013-05-06 16:56:00,61.9,53.1,30.22,North,359,2.0,8.0,73,0.00,,,0.00,meteohub,2013-05-06 20:56:00,
2013-05-06 17:01:00,63.0,53.4,30.22,North,4,0.0,8.0,71,0.00,,,0.00,meteohub,2013-05-06 21:01:00,
2013-05-06 17:06:00,64.2,53.1,30.22,NE,37,1.0,5.0,67,0.00,,,0.00,meteohub,2013-05-06 21:06:00,
2013-05-06 17:11:00,64.2,51.8,30.22,ESE,115,8.0,8.0,64,0.00,,,0.00,meteohub,2013-05-06 21:11:00,
2013-05-06 17:16:00,64.8,52.3,30.21,SSE,154,3.0,9.0,64,0.00,,,0.00,meteohub,2013-05-06 21:16:00,
2013-05-06 17:21:00,64.9,52.5,30.21,SW,226,1.0,9.0,64,0.00,,,0.00,meteohub,2013-05-06 21:21:00,
2013-05-06 17:26:00,65.1,52.7,30.21,East,85,0.0,9.0,64,0.00,,,0.00,meteohub,2013-05-06 21:26:00,
2013-05-06 17:31:00,65.3,52.3,30.21,West,278,1.0,7.0,63,0.00,,,0.00,meteohub,2013-05-06 21:31:00,
2013-05-06 17:36:00,64.9,52.5,30.21,SE,129,5.0,7.0,64,0.00,,,0.00,meteohub,2013-05-06 21:36:00,
2013-05-06 17:41:00,64.6,52.2,30.21,ESE,107,4.0,7.0,64,0.00,,,0.00,meteohub,2013-05-06 21:41:00,
2013-05-06 17:46:00,64.6,52.2,30.21,NE,41,2.0,7.0,64,0.00,,,0.00,meteohub,2013-05-06 21:46:00,
2013-05-06 17:51:00,64.8,51.4,30.21,SE,142,3.0,8.0,62,0.00,,,0.00,meteohub,2013-05-06 21:51:00,
2013-05-06 17:56:00,64.6,52.2,30.21,SE,128,4.0,8.0,64,0.00,,,0.00,meteohub,2013-05-06 21:56:00,
2013-05-06 18:01:00,64.2,51.8,30.21,ESE,104,3.0,8.0,64,0.00,,,0.00,meteohub,2013-05-06 22:01:00,
2013-05-06 18:06:00,64.0,51.6,30.20,ESE,117,1.0,8.0,64,0.00,,,0.00,meteohub,2013-05-06 22:06:00,
2013-05-06 18:11:00,63.9,51.4,30.20,SSE,167,3.0,7.0,64,0.00,,,0.00,meteohub,2013-05-06 22:11:00,
2013-05-06 18:16:00,63.7,51.6,30.20,SE,124,3.0,7.0,65,0.00,,,0.00,meteohub,2013-05-06 22:16:00,
2013-05-06 18:21:00,63.5,51.1,30.20,SE,144,3.0,6.0,64,0.00,,,0.00,meteohub,2013-05-06 22:21:00,
2013-05-06 18:26:00,63.3,51.4,30.20,SE,135,4.0,6.0,65,0.00,,,0.00,meteohub,2013-05-06 22:26:00,
2013-05-06 18:31:00,63.3,51.4,30.20,South,174,3.0,6.0,65,0.00,,,0.00,meteohub,2013-05-06 22:31:00,
2013-05-06 18:36:00,63.1,51.3,30.20,SW,224,0.0,7.0,65,0.00,,,0.00,meteohub,2013-05-06 22:36:00,
2013-05-06 18:41:00,63.1,51.3,30.20,ESE,117,3.0,7.0,65,0.00,,,0.00,meteohub,2013-05-06 22:41:00,
2013-05-06 18:46:00,62.8,50.9,30.20,SSE,163,1.0,7.0,65,0.00,,,0.00,meteohub,2013-05-06 22:46:00,
2013-05-06 18:51:00,62.6,51.1,30.20,SE,141,1.0,5.0,66,0.00,,,0.00,meteohub,2013-05-06 22:51:00,
2013-05-06 18:56:00,62.6,51.1,30.20,SSE,154,1.0,6.0,66,0.00,,,0.00,meteohub,2013-05-06 22:56:00,
2013-05-06 19:01:00,62.4,50.9,30.21,SE,142,3.0,6.0,66,0.00,,,0.00,meteohub,2013-05-06 23:01:00,
2013-05-06 19:06:00,62.4,50.9,30.21,SE,145,1.0,5.0,66,0.00,,,0.00,meteohub,2013-05-06 23:06:00,
2013-05-06 19:11:00,62.1,50.5,30.21,SE,144,1.0,5.0,66,0.00,,,0.00,meteohub,2013-05-06 23:11:00,
2013-05-06 19:16:00,61.9,50.7,30.21,SE,146,0.0,5.0,67,0.00,,,0.00,meteohub,2013-05-06 23:16:00,
2013-05-06 19:21:00,61.5,50.5,30.21,SE,124,1.0,4.0,67,0.00,,,0.00,meteohub,2013-05-06 23:21:00,
2013-05-06 19:26:00,61.3,50.7,30.21,SSE,148,0.0,4.0,68,0.00,,,0.00,meteohub,2013-05-06 23:26:00,
2013-05-06 19:31:00,61.0,50.4,30.21,SSE,156,2.0,3.0,68,0.00,,,0.00,meteohub,2013-05-06 23:31:00,
2013-05-06 19:36:00,60.3,50.0,30.21,SE,132,2.0,3.0,69,0.00,,,0.00,meteohub,2013-05-06 23:36:00,
2013-05-06 19:41:00,59.5,50.2,30.21,SSE,168,0.0,3.0,71,0.00,,,0.00,meteohub,2013-05-06 23:41:00,
2013-05-06 19:46:00,58.6,50.0,30.21,SE,132,0.0,3.0,73,0.00,,,0.00,meteohub,2013-05-06 23:46:00,
2013-05-06 19:51:00,57.9,50.0,30.21,SE,146,0.0,3.0,75,0.00,,,0.00,meteohub,2013-05-06 23:51:00,
2013-05-06 19:56:00,57.4,50.2,30.21,SE,145,0.0,5.0,77,0.00,,,0.00,meteohub,2013-05-06 23:56:00,
2013-05-06 20:01:00,56.8,50.0,30.21,SE,141,0.0,5.0,78,0.00,,,0.00,meteohub,2013-05-07 00:01:00,
2013-05-06 20:06:00,56.5,50.0,30.21,SE,131,1.0,3.0,79,0.00,,,0.00,meteohub,2013-05-07 00:06:00,
2013-05-06 20:11:00,55.9,50.2,30.21,SSW,212,0.0,4.0,81,0.00,,,0.00,meteohub,2013-05-07 00:11:00,
2013-05-06 20:16:00,55.6,50.2,30.21,East,101,0.0,4.0,82,0.00,,,0.00,meteohub,2013-05-07 00:16:00,
2013-05-06 20:21:00,55.2,49.8,30.21,SE,132,1.0,4.0,82,0.00,,,0.00,meteohub,2013-05-07 00:21:00,
2013-05-06 20:26:00,55.0,50.0,30.21,SE,131,0.0,4.0,83,0.00,,,0.00,meteohub,2013-05-07 00:26:00,
2013-05-06 20:31:00,54.7,49.6,30.21,SSE,162,0.0,2.0,83,0.00,,,0.00,meteohub,2013-05-07 00:31:00,
2013-05-06 20:36:00,54.3,49.6,30.22,SSE,158,1.0,2.0,84,0.00,,,0.00,meteohub,2013-05-07 00:36:00,
2013-05-06 20:41:00,54.0,49.6,30.22,SSE,162,1.0,3.0,85,0.00,,,0.00,meteohub,2013-05-07 00:41:00,
2013-05-06 20:46:00,53.8,49.5,30.22,SE,141,1.0,3.0,85,0.00,,,0.00,meteohub,2013-05-07 00:46:00,
2013-05-06 20:51:00,53.6,49.5,30.22,South,181,2.0,3.0,86,0.00,,,0.00,meteohub,2013-05-07 00:51:00,
2013-05-06 20:56:00,53.4,49.3,30.22,SE,135,0.0,3.0,86,0.00,,,0.00,meteohub,2013-05-07 00:56:00,
2013-05-06 21:01:00,53.2,49.1,30.22,SSW,201,1.0,3.0,86,0.00,,,0.00,meteohub,2013-05-07 01:01:00,
2013-05-06 21:06:00,53.1,48.9,30.22,SE,132,1.0,2.0,86,0.00,,,0.00,meteohub,2013-05-07 01:06:00,
2013-05-06 21:11:00,53.1,48.9,30.22,ESE,115,0.0,2.0,86,0.00,,,0.00,meteohub,2013-05-07 01:11:00,
2013-05-06 21:16:00,52.9,48.7,30.22,East,101,0.0,3.0,86,0.00,,,0.00,meteohub,2013-05-07 01:16:00,
2013-05-06 21:21:00,52.7,48.6,30.22,ESE,114,0.0,3.0,86,0.00,,,0.00,meteohub,2013-05-07 01:21:00,
2013-05-06 21:26:00,52.5,48.7,30.22,SE,136,0.0,3.0,87,0.00,,,0.00,meteohub,2013-05-07 01:26:00,
2013-05-06 21:31:00,52.3,48.6,30.23,SE,141,1.0,3.0,87,0.00,,,0.00,meteohub,2013-05-07 01:31:00,
2013-05-06 21:36:00,52.2,48.4,30.23,East,100,0.0,3.0,87,0.00,,,0.00,meteohub,2013-05-07 01:36:00,
2013-05-06 21:41:00,52.0,48.6,30.23,SE,131,0.0,3.0,88,0.00,,,0.00,meteohub,2013-05-07 01:41:00,
2013-05-06 21:46:00,52.0,48.6,30.23,ESE,108,0.0,3.0,88,0.00,,,0.00,meteohub,2013-05-07 01:46:00,
2013-05-06 21:51:00,52.0,48.6,30.23,SE,135,0.0,3.0,88,0.00,,,0.00,meteohub,2013-05-07 01:51:00,
2013-05-06 21:56:00,51.8,48.4,30.23,ESE,110,1.0,3.0,88,0.00,,,0.00,meteohub,2013-05-07 01:56:00,
2013-05-06 22:01:00,51.8,48.4,30.23,SSE,159,1.0,4.0,88,0.00,,,0.00,meteohub,2013-05-07 02:01:00,
2013-05-06 22:06:00,51.8,48.4,30.23,SE,138,1.0,4.0,88,0.00,,,0.00,meteohub,2013-05-07 02:06:00,
2013-05-06 22:11:00,51.6,48.6,30.23,ESE,116,2.0,3.0,89,0.00,,,0.00,meteohub,2013-05-07 02:11:00,
2013-05-06 22:16:00,51.6,48.6,30.23,SE,128,1.0,4.0,89,0.00,,,0.00,meteohub,2013-05-07 02:16:00,
2013-05-06 22:21:00,51.6,48.6,30.23,SE,129,1.0,4.0,89,0.00,,,0.00,meteohub,2013-05-07 02:21:00,
2013-05-06 22:27:00,51.4,48.4,30.23,SE,129,0.0,4.0,89,0.00,,,0.00,meteohub,2013-05-07 02:27:00,
2013-05-06 22:31:00,51.3,48.4,30.23,SE,129,0.0,3.0,90,0.00,,,0.00,meteohub,2013-05-07 02:31:00,
2013-05-06 22:36:00,51.1,48.2,30.22,SE,129,0.0,1.0,90,0.00,,,0.00,meteohub,2013-05-07 02:36:00,
2013-05-06 22:42:00,50.7,47.8,30.23,SE,129,0.0,1.0,90,0.00,,,0.00,meteohub,2013-05-07 02:42:00,
2013-05-06 22:46:00,50.5,48.0,30.23,SE,124,0.0,1.0,91,0.00,,,0.00,meteohub,2013-05-07 02:46:00,
2013-05-06 22:51:00,50.4,47.8,30.23,SE,124,0.0,1.0,91,0.00,,,0.00,meteohub,2013-05-07 02:51:00,
2013-05-06 22:56:00,50.2,47.7,30.22,SE,124,0.0,1.0,91,0.00,,,0.00,meteohub,2013-05-07 02:56:00,
2013-05-06 23:01:00,49.8,47.3,30.22,SE,124,0.0,1.0,91,0.00,,,0.00,meteohub,2013-05-07 03:01:00,
2013-05-06 23:06:00,49.6,47.5,30.22,SE,124,0.0,0.0,92,0.00,,,0.00,meteohub,2013-05-07 03:06:00,
2013-05-06 23:11:00,49.8,47.7,30.22,SE,124,0.0,0.0,92,0.00,,,0.00,meteohub,2013-05-07 03:11:00,
2013-05-06 23:16:00,49.6,47.7,30.22,ESE,120,0.0,1.0,93,0.00,,,0.00,meteohub,2013-05-07 03:16:00,
2013-05-06 23:21:00,50.0,48.0,30.22,ESE,120,0.0,1.0,93,0.00,,,0.00,meteohub,2013-05-07 03:21:00,
2013-05-06 23:26:00,50.2,48.2,30.22,ESE,115,0.0,1.0,93,0.00,,,0.00,meteohub,2013-05-07 03:26:00,
2013-05-06 23:31:00,50.4,48.4,30.22,ESE,111,1.0,2.0,93,0.00,,,0.00,meteohub,2013-05-07 03:31:00,
2013-05-06 23:36:00,50.2,48.0,30.22,SE,129,0.0,2.0,92,0.00,,,0.00,meteohub,2013-05-07 03:36:00,
2013-05-06 23:41:00,50.0,47.8,30.22,SE,128,0.0,2.0,92,0.00,,,0.00,meteohub,2013-05-07 03:41:00,
2013-05-06 23:46:00,49.8,47.7,30.22,SE,124,0.0,2.0,92,0.00,,,0.00,meteohub,2013-05-07 03:46:00,
2013-05-06 23:51:00,49.6,47.7,30.22,East,96,1.0,1.0,93,0.00,,,0.00,meteohub,2013-05-07 03:51:00,
2013-05-06 23:56:00,49.6,47.7,30.21,East,100,0.0,2.0,93,0.00,,,0.00,meteohub,2013-05-07 03:56:00,